Location: Alafon
(8.4500°N, 4.2333°E)
Time: 04:55:45
(UTC+00:00)

Transit 2A - Visible Passes

Search period start: 26 July 2021 00:00
Search period end: 05 August 2021 00:00
Orbit: 598 x 960 km, 66.7° (Epoch: 25 July)

Date Brightness Start Highest point End Pass type
(mag) Time Alt. Az. Time Alt. Az. Time Alt. Az.
26 Jul 8.4 05:06:12 10° SE 05:08:27 14° ESE 05:10:40 10° ENE visible
27 Jul 9.4 18:45:07 10° W 18:46:26 11° WSW 18:47:47 10° WSW visible
29 Jul 6.4 05:04:33 10° S 05:08:50 52° ESE 05:13:01 10° NNE visible
30 Jul 7.5 04:30:56 10° SSE 04:34:42 28° ESE 04:38:23 10° NE visible
31 Jul 8.2 03:57:58 10° SE 04:00:34 15° ESE 04:03:07 10° ENE visible
01 Aug 6.1 05:05:12 10° SW 05:09:13 37° WNW 05:13:12 10° N visible
02 Aug 5.4 04:31:59 19° SSW 04:35:04 71° WNW 04:39:22 10° NNE visible
03 Aug 5.9 03:59:38 40° SSE 04:00:55 60° ESE 04:05:10 10° NNE visible
04 Aug 7.1 03:27:13 30° E 03:27:13 30° E 03:30:37 10° NE visible
